sat.trackr.live / text

‹ back to catalog

STARLINK-5791

NORAD 57146 · 2023-090AX

PAYLOAD ACTIVE UNKNOWN

§ Identity

Operator
Country
US
Launch date
2023-06-23
Launch site
AFETR
Launch vehicle
Mass (kg)
RCS (m²)

Purposes: comms

External: N2YO · Heavens-Above · Gunter

§ Orbital elements

Epoch: 2026-09-20T15:54:36.999936Z

Period
94.27 min
Inclination
43.0043°
Eccentricity
0.0001451
Mean motion
15.27575735 rev/d
Perigee alt
482.1 km
Apogee alt
484.1 km
Semi-major
6,861.2 km
B*
9.0527e-6
RAAN
242.0934°
Arg perigee
283.9208°
Mean anomaly
76.1482°
Rev number
18,017

§ Raw data

STARLINK-57911 57146U 23090AX  26263.66292824 -.00000013  00000+0  90527-5 0  99972 57146  43.0043 242.0934 0001451 283.9208  76.1482 15.27575735180178

JSON: /api/v1/satellites/57146 · /tle

For live sub-satellite position, see the globe view (requires WebGL).

§ Visibility from observer

Set your observer location to see the next 7 days of passes ≥ 10°. The values pass through the URL so the page stays shareable.

No JS? Fill the form by hand. The geolocation button needs JavaScript.